Wind_Speed
51 51 49 49 49 46 40 37 39 42 43 43 45 48 47 43 40 40 41 40 38 39 41 42 44 46 46 45 45 44 43 44 45 46 47 47 47 48 47 45 44 43 43 44 45 46 47 46 44 42 40 39 38 37 35 34 32 32 33 34 35 35 34 35 34 32 29 27 26 26 25 24 23 23 22 22 23 25 26 28 30 31 33 34 36
52 53 52 52 51 47 40 37 38 41 41 40 40 45 46 42 39 40 41 40 39 40 43 45 46 46 46 46 46 46 46 46 44 44 44 44 43 42 41 40 39 40 42 44 45 45 45 43 41 40 39 38 36 35 34 32 29 29 31 33 34 34 32 31 30 28 27 27 26 25 25 25 24 23 23 23 23 25 28 30 32 34 36 38 39
53 54 55 55 53 49 43 40 39 39 39 39 38 40 41 40 39 41 42 40 40 42 46 49 50 50 48 47 45 44 46 46 43 42 41 40 39 38 39 40 41 42 44 45 45 45 45 43 40 38 38 36 35 33 32 30 27 27 30 33 33 30 29 27 26 25 27 27 26 25 24 25 24 24 24 24 25 27 30 32 34 36 38 38 36
54 54 55 56 55 51 46 42 41 38 37 37 38 38 38 38 40 41 41 41 40 42 46 50 52 52 52 51 49 48 48 46 43 40 39 38 38 39 41 42 43 44 45 45 45 44 43 41 38 37 37 36 34 33 31 28 27 27 28 31 31 29 26 24 22 22 24 25 24 23 23 23 23 23 24 25 27 29 30 32 33 34 34 32 31
54 54 55 56 56 54 49 45 44 41 36 35 38 38 38 39 41 42 43 43 43 43 45 48 50 51 52 51 49 49 49 47 44 41 39 39 40 41 41 42 43 44 44 44 43 42 41 39 37 36 36 35 33 32 29 27 27 27 26 29 31 30 25 22 20 21 22 23 23 22 22 22 23 23 24 25 27 28 29 29 30 31 31 30 30
54 54 55 55 56 56 54 49 47 45 41 38 37 35 35 38 40 41 43 43 42 43 43 44 45 47 48 47 47 46 46 45 43 41 40 40 41 41 42 43 44 44 44 44 43 41 40 38 37 37 36 34 33 30 28 27 28 27 25 27 30 29 26 23 22 23 24 26 26 26 25 24 24 24 25 26 27 28 29 29 30 31 32 32 33
55 54 55 56 55 57 56 52 49 49 46 43 39 34 33 37 40 40 41 41 41 41 41 40 41 41 40 41 42 42 41 41 40 40 40 40 40 41 42 42 43 43 43 43 42 41 39 38 38 37 35 34 32 29 28 28 28 27 26 26 27 28 28 27 26 26 27 29 30 29 28 27 27 27 27 28 29 30 30 31 33 34 34 35 36
54 53 54 56 55 55 56 53 51 51 48 45 44 40 36 38 40 41 41 40 40 40 40 41 40 39 37 37 37 37 37 37 37 37 37 38 39 39 41 41 42 42 41 41 40 40 38 38 38 37 36 34 32 29 28 29 29 29 28 27 26 28 30 30 30 29 30 31 31 30 29 29 30 30 30 31 32 32 33 34 36 37 38 39 39
52 52 51 53 55 54 53 52 52 52 51 48 47 46 42 38 39 42 43 40 40 40 41 42 43 42 40 39 36 35 34 34 34 35 36 36 36 37 37 38 39 40 40 40 39 39 38 38 38 37 36 34 32 30 30 30 30 30 30 29 28 28 30 32 32 32 33 33 33 32 31 32 32 32 33 35 36 36 36 38 39 39 40 42 43
49 49 49 51 53 54 53 52 52 52 51 48 46 45 44 41 39 41 42 42 41 41 42 43 43 41 40 39 38 36 35 36 36 37 37 36 36 36 36 37 38 39 40 40 40 38 37 38 38 37 36 34 33 32 32 31 32 32 32 32 32 31 32 34 35 35 36 36 35 34 34 34 34 35 36 38 39 40 40 42 43 43 43 44 45
47 47 47 48 50 52 53 52 51 51 49 46 43 41 42 43 42 42 44 44 43 40 39 40 41 40 39 38 37 36 36 37 38 38 38 37 37 37 39 40 41 40 40 40 39 38 37 37 38 37 36 35 35 34 33 33 34 34 35 36 36 35 35 36 36 37 38 38 39 38 37 37 37 38 39 41 42 43 44 45 47 47 46 46 48
49 47 46 46 47 50 51 50 49 49 49 47 43 40 40 41 41 42 45 45 44 41 39 38 39 40 40 38 37 36 35 35 36 37 38 38 38 39 40 41 42 41 40 39 38 37 37 37 38 38 38 38 37 36 35 36 36 37 38 38 38 37 37 38 38 38 39 40 41 41 41 41 41 42 43 44 45 46 47 49 50 50 50 49 50
51 50 47 46 46 47 49 49 48 46 48 47 45 43 44 43 42 43 46 46 45 44 43 42 42 41 41 39 39 39 39 38 38 38 38 38 37 38 39 40 40 40 39 38 38 38 38 37 39 40 40 41 40 38 37 38 39 39 41 42 41 40 39 40 40 40 41 42 43 44 45 45 45 45 46 47 48 50 51 53 53 53 53 53 54
54 53 50 48 48 48 48 49 48 46 45 44 44 45 47 47 46 46 47 48 48 46 45 45 45 43 41 41 41 43 44 45 45 45 44 42 41 40 40 40 40 41 40 40 39 39 39 39 41 42 43 43 42 41 39 40 40 41 43 46 46 44 42 43 43 43 43 43 45 46 47 48 48 48 48 50 51 53 55 56 56 56 56 56 57
56 55 53 51 50 50 50 49 49 48 45 42 44 46 47 47 47 48 49 49 49 49 47 46 45 44 42 42 43 44 46 47 49 49 48 48 48 47 46 45 43 43 43 42 42 42 42 42 43 44 45 45 45 44 42 41 42 43 45 47 48 47 46 46 45 45 45 46 47 48 49 49 50 50 51 53 55 56 57 58 59 59 59 59 60
59 58 58 56 53 52 53 52 51 50 48 47 48 49 49 48 47 48 52 51 49 50 51 50 50 48 46 45 45 45 46 47 48 48 48 49 50 49 48 47 45 45 45 45 45 45 44 45 46 47 48 48 47 47 45 44 44 44 46 48 48 48 50 50 48 47 48 49 50 51 51 51 52 53 55 57 58 59 59 60 62 61 61 61 63
62 61 61 60 57 55 55 56 55 53 52 51 53 53 52 51 49 49 52 52 50 51 52 53 54 51 48 46 46 45 47 48 48 47 47 47 48 47 46 46 47 47 48 48 48 47 47 48 48 49 50 50 49 48 47 46 46 46 47 48 48 49 51 52 51 51 51 51 52 53 54 54 56 57 58 59 60 60 61 63 64 64 63 64 65
66 64 63 63 62 60 58 58 58 58 56 53 53 55 55 55 54 54 53 51 49 50 51 52 53 51 47 47 47 46 47 48 47 47 47 47 48 49 50 50 50 50 50 50 50 49 49 50 50 50 51 51 50 49 47 47 47 47 48 49 50 50 51 53 54 55 55 54 55 56 57 58 59 60 60 61 62 63 64 66 66 67 67 67 68
69 68 66 65 65 64 62 61 59 60 60 57 53 53 56 56 56 56 55 52 49 49 51 51 50 48 46 46 47 48 50 50 49 49 50 51 52 54 54 54 53 52 52 51 51 51 51 51 50 51 51 51 51 50 49 49 49 50 50 51 51 52 53 54 56 57 57 58 58 59 60 61 62 62 63 63 64 66 67 68 69 70 70 71 71
73 72 70 68 67 66 65 65 63 61 62 61 58 54 54 55 55 55 55 54 51 49 50 50 48 46 46 46 46 47 50 51 50 51 53 55 56 57 58 57 56 54 52 51 51 51 51 51 51 52 53 53 53 53 53 53 53 53 53 54 54 55 56 57 58 59 60 60 61 62 64 65 65 65 65 66 67 69 70 71 71 72 73 74 75
72 74 73 72 70 69 68 67 66 65 63 63 61 57 53 53 54 52 52 52 51 51 51 51 49 49 49 49 46 46 48 49 49 50 51 52 55 57 59 59 59 57 55 54 53 52 52 52 52 53 54 54 55 55 55 55 56 57 57 57 58 58 59 60 61 62 62 63 65 66 67 68 68 68 69 70 71 72 72 73 74 75 76 77 78
68 71 73 73 72 72 71 69 68 68 66 65 63 59 54 53 54 53 51 50 50 51 51 52 52 50 50 50 50 49 51 52 53 52 52 52 53 56 57 58 58 57 57 57 56 56 56 56 55 55 56 57 57 58 58 59 60 61 61 60 60 61 62 63 64 65 66 68 69 70 71 71 71 72 72 73 74 75 76 77 77 78 79 80 81
62 65 68 70 70 70 71 71 71 71 69 68 66 60 54 53 54 54 52 51 49 49 50 51 52 52 52 54 56 56 56 56 57 57 57 57 58 60 60 59 58 57 56 56 56 57 58 58 58 59 59 60 60 61 62 63 64 64 64 64 64 64 65 66 67 69 71 72 74 74 75 75 75 76 76 77 78 79 80 81 81 81 82 83 85
58 60 63 65 65 65 66 67 69 71 71 70 68 63 57 56 55 54 54 54 52 51 50 51 52 54 56 58 58 58 59 59 59 60 60 58 58 59 61 60 59 57 56 55 56 57 59 60 61 61 62 62 63 64 65 66 67 68 68 68 69 69 69 71 72 73 75 76 77 77 77 77 78 79 80 81 82 83 84 84 84 85 86 87 90
54 56 58 60 61 61 62 62 64 67 69 70 70 65 62 61 58 53 52 54 54 53 54 56 56 56 56 58 59 60 62 62 61 60 58 55 54 55 58 59 59 57 55 55 56 57 60 61 62 64 65 66 68 69 70 70 71 72 72 72 73 73 74 75 76 77 78 78 78 78 79 79 80 81 82 84 85 86 86 86 87 88 89 91 94
53 54 55 56 57 58 59 60 61 63 65 68 68 66 66 67 63 56 52 53 55 56 58 61 61 59 58 59 60 62 63 61 59 58 56 54 54 56 58 61 62 61 59 60 60 61 62 64 65 66 68 70 71 72 73 73 73 74 75 76 77 78 78 79 79 80 79 79 79 79 80 81 82 84 85 87 87 88 88 89 90 92 93 95 97
53 54 55 55 55 56 57 59 61 64 65 66 66 66 69 71 66 59 55 55 58 62 65 67 67 66 65 64 62 61 61 60 58 58 59 60 60 62 63 66 68 68 67 66 66 67 68 69 70 71 72 72 73 73 74 75 75 76 78 79 80 81 81 81 81 81 80 80 81 82 83 84 85 87 88 89 90 90 91 92 93 95 97 98 100
54 55 56 56 55 56 57 59 62 65 66 67 66 68 71 73 69 63 61 61 64 68 71 72 72 72 72 71 68 64 63 63 62 62 63 66 67 69 70 72 73 74 73 73 73 73 72 73 73 74 75 76 76 77 78 79 80 81 81 81 81 81 81 81 81 81 82 83 84 85 86 88 89 90 91 92 93 93 94 95 97 98 100 101 103
54 55 57 58 57 56 57 60 64 66 67 67 68 70 73 74 72 69 70 71 72 73 74 74 74 74 74 74 72 69 67 68 68 67 68 70 72 74 75 77 78 79 79 79 79 78 77 75 75 75 76 78 79 81 82 83 84 84 84 83 82 82 83 83 84 85 86 87 88 89 90 91 92 93 94 95 96 97 98 99 100 101 102 104 105
55 56 58 59 59 58 59 61 65 68 68 69 70 73 76 77 75 74 76 78 78 79 79 77 76 75 74 73 73 72 70 70 71 71 72 74 76 78 80 81 83 84 85 85 84 82 80 79 78 78 78 79 81 83 84 85 85 85 85 85 85 85 86 87 88 89 89 90 91 93 94 95 96 97 98 99 100 101 102 103 104 105 106 107 108
56 57 59 61 62 61 61 63 66 69 69 70 72 76 79 80 79 79 81 83 84 83 82 82 80 79 77 75 75 74 73 73 73 75 76 78 80 82 84 85 86 88 89 89 88 86 85 84 83 82 82 83 84 85 86 86 86 86 86 87 87 88 89 90 91 92 93 94 96 97 98 98 99 100 101 102 103 104 105 106 107 108 109 110 112
58 59 60 62 64 64 64 64 67 70 71 71 74 79 82 83 83 84 86 87 87 86 84 83 83 82 82 81 80 79 79 79 79 80 81 82 83 85 86 87 89 90 92 92 90 89 89 87 86 85 85 85 86 86 87 87 87 88 88 89 90 91 92 94 95 96 98 99 100 100 101 102 102 103 104 105 106 107 108 109 110 111 112 114 115
60 60 62 64 66 67 67 67 68 71 73 73 75 80 85 87 87 89 90 91 91 90 88 86 85 85 85 85 85 84 84 84 84 85 85 86 87 88 89 90 91 92 93 93 92 92 91 90 88 86 86 86 87 88 89 90 91 92 93 94 95 96 97 99 100 101 102 102 103 103 104 104 105 105 106 107 108 109 110 112 113 114 116 117 119
61 62 63 65 67 70 71 71 70 71 74 75 77 81 86 91 92 93 94 95 94 94 92 91 90 89 88 87 87 87 87 87 88 88 89 90 91 92 93 93 94 94 95 95 95 95 94 92 91 90 91 92 94 95 97 98 98 99 99 99 100 101 101 102 103 103 104 105 105 105 106 106 107 107 108 109 111 112 113 115 116 118 119 121 123
61 63 64 66 69 72 74 75 74 74 75 77 78 81 85 91 96 98 99 99 99 98 96 96 95 94 93 92 91 90 89 89 90 91 92 93 94 95 95 96 96 96 97 97 97 97 96 96 96 97 98 99 101 102 102 102 102 102 102 102 102 102 103 104 105 106 106 107 107 108 108 109 109 110 111 112 114 115 117 118 120 121 123 125 126
61 64 65 67 69 73 76 78 79 78 77 78 80 82 84 89 95 100 102 103 102 101 100 99 99 98 98 97 97 95 94 93 93 93 93 94 95 96 97 97 98 98 99 99 99 99 99 99 100 100 101 102 102 103 103 103 104 104 104 104 105 106 107 108 108 109 109 110 110 111 111 112 112 114 115 116 118 119 120 122 124 126 127 129 130
62 65 67 68 70 73 76 79 82 82 82 81 82 84 85 88 92 98 103 105 105 104 103 103 102 102 102 101 101 100 100 99 98 98 98 98 98 99 100 101 102 102 102 102 102 103 103 104 104 104 104 105 105 105 106 107 108 108 109 109 109 110 110 111 112 112 113 113 113 114 114 115 116 117 118 120 121 123 124 126 128 129 130 132 133
62 65 68 70 71 73 76 79 82 85 86 86 86 86 87 89 90 94 99 104 107 108 108 107 106 105 105 105 104 104 103 103 102 102 103 103 104 104 105 105 106 106 106 106 106 107 107 107 108 108 108 108 109 109 110 111 112 112 112 112 112 113 113 114 115 115 116 116 117 118 118 119 120 121 122 124 125 127 129 130 131 132 133 134 134
61 64 67 71 73 74 76 78 82 85 88 90 90 90 90 91 92 93 95 99 104 107 110 111 111 110 109 109 109 108 107 106 106 105 106 107 108 108 109 109 109 109 109 109 110 111 111 111 111 111 111 111 112 113 113 114 114 115 115 115 115 115 116 117 118 119 119 120 120 121 122 123 124 125 126 128 129 131 132 133 134 135 135 135 134
61 63 65 69 72 74 77 79 82 84 88 91 93 94 94 94 94 95 96 97 100 103 106 110 113 114 114 114 114 113 111 110 110 110 110 110 111 111 112 112 113 113 113 114 114 114 114 114 114 114 115 115 116 116 117 117 118 118 118 118 118 119 120 121 121 122 122 123 124 125 125 126 128 129 130 132 133 134 134 135 136 136 135 133 131
59 61 64 67 70 72 75 78 82 85 87 90 93 96 97 97 97 98 98 99 100 101 103 105 109 112 115 117 118 118 117 115 115 115 115 115 115 115 115 115 116 116 116 117 117 117 117 117 117 118 118 118 119 120 120 120 120 120 120 121 121 122 124 124 125 125 126 126 127 128 129 130 132 133 134 135 136 136 136 136 136 135 133 130 128
57 59 62 65 68 70 72 75 79 83 86 89 92 95 98 100 101 101 101 101 102 102 103 104 106 108 111 114 117 119 120 120 119 119 119 119 119 118 118 118 118 119 119 119 119 119 119 119 120 120 120 121 121 121 122 122 122 123 124 125 126 127 127 128 128 129 129 130 131 132 133 134 135 136 136 137 137 137 137 136 134 132 129 127 124
54 57 59 62 65 68 71 73 76 79 83 87 90 93 96 99 101 103 104 104 105 105 105 106 107 107 109 110 112 115 118 120 121 122 123 123 122 122 122 122 122 122 122 122 122 122 123 123 123 123 123 124 124 125 125 126 127 128 129 130 130 131 131 132 132 133 133 134 135 136 137 137 137 137 137 137 137 136 135 132 130 127 125 121 117
51 53 56 59 62 65 68 71 74 76 79 82 86 90 94 97 100 102 105 106 107 108 108 108 108 109 110 110 111 112 114 116 118 120 122 124 125 126 126 126 126 126 126 126 127 127 127 127 127 128 128 129 129 130 131 131 132 133 133 134 134 135 135 135 136 136 137 137 138 138 138 138 138 137 137 136 135 133 130 128 125 121 117 113 108
53 52 53 56 59 62 65 67 70 73 76 79 82 86 89 93 97 100 103 105 108 109 110 111 111 111 112 112 112 113 114 114 115 117 119 121 123 125 126 128 129 130 130 131 131 131 131 132 132 133 133 133 134 134 135 135 136 137 137 137 137 137 138 138 138 139 139 139 138 138 138 137 137 136 134 132 130 128 125 121 117 113 109 105 100
53 54 54 55 56 59 62 64 67 69 72 75 79 82 85 88 92 96 99 102 105 108 110 111 112 113 114 114 114 115 115 115 116 116 117 118 119 121 122 124 126 127 129 130 131 132 133 133 134 135 135 136 136 137 137 138 138 138 139 139 139 139 139 139 139 139 139 138 138 137 136 135 134 132 130 127 124 121 117 113 109 105 101 96 91
50 52 54 56 56 57 59 61 63 66 68 71 74 77 80 83 87 90 93 97 100 104 107 109 111 113 114 115 116 116 117 117 117 118 118 118 119 119 120 121 123 124 125 126 128 129 130 131 132 133 134 134 135 136 136 137 137 138 138 138 138 138 138 138 138 137 137 136 136 134 133 131 129 127 124 121 117 113 110 106 101 97 92 87 82
45 48 51 54 56 57 58 59 60 62 64 67 70 73 76 79 81 84 88 91 95 98 101 105 108 110 112 114 116 117 118 118 119 119 120 120 120 120 121 122 122 123 124 125 125 126 127 128 129 130 131 132 132 133 134 134 135 135 135 135 135 136 136 136 135 135 134 133 132 130 128 126 123 120 116 113 109 105 102 97 92 87 83 78 73
42 44 46 49 52 55 57 58 58 59 60 63 65 68 71 74 77 79 83 86 89 92 95 99 102 105 108 111 113 115 117 118 119 120 121 121 122 122 122 123 123 124 124 125 125 126 127 127 128 129 129 130 131 132 132 133 134 134 134 134 134 134 134 133 132 131 130 128 126 124 121 118 115 111 108 105 101 97 92 87 82 78 74 70 66
39 40 42 45 48 50 53 55 56 57 58 59 61 64 67 69 72 75 78 81 84 86 89 91 95 98 101 105 108 110 112 114 116 118 119 120 121 122 123 124 124 125 126 126 127 127 128 128 129 130 130 131 132 132 133 133 134 134 133 133 132 131 130 128 127 125 123 121 118 115 113 110 107 103 100 96 91 87 82 77 73 70 66 63 60
37 38 39 41 44 46 48 50 52 54 56 57 58 60 62 64 67 70 73 76 79 81 83 85 88 91 93 97 100 103 106 108 110 112 114 116 117 119 120 121 122 123 124 125 126 127 128 128 129 129 130 130 131 131 131 131 130 130 129 127 126 124 123 121 119 117 115 112 110 107 104 102 98 94 90 85 81 77 73 69 66 62 60 57 55
Wind_Direction
218 220 221 223 226 226 227 230 230 231 231 229 229 230 232 237 241 241 239 241 246 248 248 247 245 242 242 246 251 254 254 255 256 258 260 262 264 266 269 271 273 275 276 278 280 281 283 284 285 285 286 287 288 288 287 288 291 294 295 295 297 299 301 303 303 302 302 302 303 302 300 298 294 291 289 285 281 279 278 279 281 285 288 292 295
217 218 221 223 226 228 229 229 229 231 232 232 231 230 232 236 239 242 245 247 250 250 247 245 245 246 246 248 252 254 254 255 257 259 260 262 264 267 269 271 273 275 277 279 280 281 282 282 283 284 286 286 286 286 285 287 290 293 294 294 295 297 299 302 301 299 300 302 304 303 300 297 295 293 291 289 286 284 283 285 287 290 292 295 296
218 218 219 223 226 228 229 229 230 232 232 233 234 234 234 236 239 244 247 249 251 252 248 246 247 249 252 254 254 253 254 255 258 259 260 263 266 268 270 272 274 275 277 278 280 281 281 281 283 284 284 284 283 283 284 286 288 291 292 291 293 297 300 299 297 296 300 303 303 302 300 299 298 297 297 296 293 292 291 293 294 296 297 297 298
218 218 219 222 226 228 230 231 232 233 235 235 235 236 238 241 244 247 247 247 251 254 253 251 250 249 251 254 256 256 257 259 261 262 264 266 267 268 270 271 273 274 275 277 278 279 279 281 282 282 282 281 280 281 283 284 286 289 290 288 292 298 298 295 294 295 299 302 302 303 304 304 303 303 302 300 299 298 298 299 299 300 300 299 299
217 218 220 222 224 227 229 231 230 229 232 235 235 238 243 246 249 249 249 249 251 252 252 253 253 252 252 254 257 259 260 261 264 265 266 267 267 268 269 270 272 273 274 275 276 277 278 279 280 280 279 278 279 279 279 281 284 289 291 289 290 292 290 290 294 295 295 297 300 304 309 311 309 307 305 303 301 301 301 300 300 299 299 298 299
217 218 220 221 223 225 227 229 227 224 225 227 228 233 240 242 241 242 245 247 248 249 249 250 253 254 255 256 257 258 259 261 263 264 264 265 266 267 269 270 271 272 273 274 274 275 276 278 279 279 277 276 276 275 275 280 285 288 290 289 287 285 283 287 294 295 294 295 296 300 306 310 312 311 307 305 304 304 304 302 299 299 298 299 300
218 219 220 221 222 225 227 229 228 224 223 222 221 222 230 235 234 234 237 239 242 246 247 247 250 254 255 255 255 255 257 258 259 260 261 263 265 267 269 270 271 271 272 272 273 274 275 276 278 277 274 274 273 271 274 282 286 286 287 287 285 281 280 285 292 296 296 296 296 296 299 303 309 311 310 308 308 308 306 303 301 302 302 302 302
219 220 221 222 222 223 226 228 227 224 224 224 222 221 224 232 236 237 238 238 240 245 248 248 251 255 257 257 255 255 256 256 256 258 260 263 266 267 269 270 270 270 271 271 272 273 274 275 276 274 272 271 268 269 276 282 284 284 284 284 284 281 281 285 291 295 296 297 297 296 295 298 304 308 309 310 310 311 308 304 304 306 305 304 304
220 221 222 222 220 220 222 224 224 223 225 226 225 224 225 230 236 240 242 244 245 247 250 252 253 257 262 262 260 258 259 258 258 260 261 263 265 267 268 269 270 270 271 271 272 272 273 274 273 272 270 268 266 271 278 281 282 282 280 280 282 283 283 286 290 294 296 297 297 296 295 297 300 303 305 307 309 310 309 306 306 308 308 306 305
220 221 224 224 221 219 220 220 221 223 225 228 227 225 228 232 236 238 243 247 249 251 252 254 255 259 262 263 263 264 265 264 264 264 262 262 263 265 265 266 267 268 269 270 271 272 273 272 271 270 268 266 268 276 280 280 279 278 276 277 280 283 284 287 291 294 295 296 297 296 294 294 296 299 301 304 306 308 308 307 308 309 310 308 306
219 221 224 226 224 222 221 220 220 221 223 225 225 225 229 234 237 239 242 246 249 252 254 255 256 259 261 262 265 269 270 268 267 265 262 261 261 261 262 262 264 266 267 269 270 271 271 271 270 269 267 267 272 278 281 279 276 274 274 275 277 281 283 286 290 292 292 293 295 295 293 292 294 296 298 302 304 306 307 307 308 309 310 309 306
219 219 222 225 226 226 224 221 221 222 223 223 223 223 228 233 236 240 243 247 250 252 254 255 257 259 261 263 265 268 270 269 267 263 261 261 260 260 260 261 262 264 266 268 270 270 270 270 268 268 268 270 274 278 279 277 275 274 274 274 275 278 282 285 287 288 288 290 292 293 293 292 293 296 298 301 303 305 306 306 308 309 310 309 306
219 218 219 221 224 225 225 224 223 225 227 226 224 226 230 233 236 240 244 248 251 253 255 258 259 258 259 260 261 263 266 267 266 263 263 263 264 263 263 262 263 265 267 269 270 271 271 270 268 267 269 270 273 276 276 276 275 275 275 275 277 279 280 282 283 284 285 287 288 290 291 292 294 295 297 300 301 303 304 305 307 308 308 308 307
221 220 219 220 222 223 224 225 225 225 227 228 227 230 235 237 239 243 245 247 250 253 257 259 260 260 260 260 260 261 262 265 266 266 267 268 269 268 267 266 267 268 270 271 272 272 272 271 269 269 269 271 272 273 274 274 274 274 274 275 277 280 280 280 281 283 284 284 286 287 289 291 292 294 296 298 299 301 303 304 306 307 307 308 308
224 223 221 220 221 223 224 225 226 227 227 226 226 229 235 239 244 248 249 250 252 254 256 256 257 260 262 261 260 260 260 262 265 266 267 268 268 268 269 269 270 270 271 272 272 273 273 272 270 269 269 270 271 272 272 272 273 273 273 274 277 279 279 279 281 283 284 284 285 286 289 290 291 292 294 296 298 300 302 303 304 306 307 307 307
227 227 225 222 221 223 225 224 225 229 231 229 227 229 232 236 243 249 252 253 254 255 256 256 257 259 261 261 260 260 260 261 262 263 264 265 265 266 267 267 269 270 270 271 272 272 272 271 270 269 269 269 270 270 270 271 272 273 273 274 277 277 278 280 283 284 284 284 285 287 289 290 291 293 295 296 298 300 301 302 304 306 306 306 306
230 229 228 226 224 224 226 225 224 227 232 234 234 237 240 240 241 245 251 254 255 256 258 260 261 261 261 261 260 259 258 258 259 259 261 262 263 264 265 267 269 269 269 269 270 271 271 270 269 269 268 268 269 269 271 272 273 273 274 275 276 276 278 281 283 284 285 285 286 288 290 291 292 294 295 297 298 298 299 300 303 305 306 306 306
229 230 230 230 228 226 227 229 228 228 233 238 239 240 243 245 243 244 248 253 255 257 258 259 261 261 260 259 258 257 256 256 257 258 260 261 263 265 266 268 269 269 269 270 270 269 269 269 270 270 269 268 268 268 270 272 273 274 275 276 276 277 279 281 283 284 286 286 287 289 291 293 294 295 295 296 297 297 298 300 302 304 306 307 307
231 231 232 233 231 228 228 231 233 231 233 240 242 239 240 242 243 243 246 250 254 256 256 256 257 257 256 255 255 255 255 255 256 258 262 265 267 268 269 269 269 269 269 270 270 270 271 271 271 270 268 267 267 267 268 271 274 276 277 277 278 279 280 281 282 284 286 287 289 291 292 294 294 295 295 295 296 298 299 301 303 304 306 307 307
235 233 233 234 233 231 230 232 236 236 235 240 245 244 241 239 239 241 244 248 251 253 253 253 253 253 253 254 255 254 254 256 259 261 264 267 269 270 271 271 271 271 270 269 269 270 271 272 271 269 268 267 266 267 268 271 274 276 277 278 279 280 281 282 283 284 286 288 290 292 293 294 294 294 294 295 296 298 300 302 303 305 306 306 306
241 237 235 235 235 233 231 233 237 239 239 241 245 246 243 237 236 238 243 246 249 251 252 252 252 252 254 256 258 258 257 259 263 265 265 266 267 268 268 269 269 270 270 269 269 269 270 270 269 268 268 268 269 270 272 273 275 276 277 278 280 281 282 283 284 285 287 289 291 292 293 294 293 293 294 295 297 299 300 302 303 304 305 306 306
246 243 240 238 238 237 235 234 236 238 240 242 244 245 242 235 233 236 241 245 247 248 250 250 250 253 257 261 264 264 263 263 265 265 264 265 266 265 264 264 266 266 267 267 268 269 269 269 268 266 266 268 270 272 273 274 275 276 277 279 281 282 283 284 286 288 289 291 292 293 293 293 294 294 295 297 298 300 301 303 304 305 306 306 305
247 246 244 242 241 240 239 238 237 238 239 241 242 242 235 229 230 234 238 242 243 244 245 247 249 253 258 263 266 267 266 265 265 264 265 266 267 267 266 264 263 262 263 266 267 268 268 268 267 266 266 267 270 272 273 275 276 277 277 279 280 283 285 287 288 289 290 291 292 293 294 295 296 296 298 299 300 301 302 303 304 305 305 305 305
244 245 245 243 242 240 240 239 237 237 238 239 240 238 229 224 227 233 235 238 240 241 244 249 252 256 259 262 264 264 263 262 261 263 266 267 268 269 270 269 265 262 262 264 265 266 266 266 266 266 267 269 271 273 275 276 277 278 279 280 281 284 286 287 288 289 290 292 293 294 295 296 297 298 299 300 301 302 303 304 304 305 305 305 305
243 243 243 242 240 239 238 238 236 235 235 235 236 233 225 219 223 228 233 238 241 244 248 253 256 258 259 259 259 258 259 259 260 263 266 267 265 266 267 268 266 265 266 267 266 264 263 263 264 265 266 268 270 272 274 275 276 278 280 281 283 284 285 286 288 289 291 292 294 295 296 296 297 298 299 300 301 302 302 303 304 304 304 304 305
242 242 241 240 238 236 236 235 234 232 231 230 230 228 221 217 220 223 228 234 240 244 248 251 253 253 253 253 254 254 255 257 260 262 263 261 260 260 261 263 264 266 270 271 270 268 268 267 267 267 267 269 270 272 274 276 278 279 281 282 284 285 286 287 289 291 293 294 295 295 295 296 296 297 298 299 300 301 302 302 303 303 303 304 304
241 241 240 237 235 232 232 232 230 229 228 227 225 221 217 215 217 220 224 230 235 238 242 245 246 247 247 248 249 250 252 254 257 258 258 257 256 256 257 260 263 266 269 271 271 271 272 273 273 273 273 273 273 274 276 278 279 281 282 284 285 287 289 291 293 294 294 294 295 295 295 295 296 297 298 299 300 301 301 302 302 302 303 303 304
241 239 238 236 233 230 229 228 227 226 226 224 222 218 216 216 216 218 222 227 230 233 237 240 242 244 246 247 247 248 249 251 253 254 254 255 256 257 257 259 262 265 267 269 271 272 273 274 275 276 276 277 277 278 280 281 283 284 285 286 288 290 291 292 293 293 293 293 293 294 295 296 297 297 298 299 299 300 301 301 302 302 302 303 304
240 239 238 236 233 230 228 226 225 224 224 223 220 217 216 217 217 217 219 222 225 229 232 235 238 241 244 246 247 248 248 250 251 252 253 254 255 257 259 260 262 263 266 268 270 271 273 274 274 275 276 277 279 281 283 284 285 286 287 288 289 290 291 291 291 291 292 292 293 295 296 296 297 297 298 298 299 299 300 301 301 301 302 303 304
239 237 236 235 233 230 228 226 224 223 223 222 220 217 216 217 218 218 219 220 223 226 229 231 234 238 241 243 245 247 247 248 250 251 252 253 255 256 258 260 261 263 265 267 269 270 272 273 274 274 275 277 279 281 283 285 286 287 288 289 289 290 290 291 291 292 293 293 294 295 296 296 297 297 297 298 298 299 300 300 301 302 303 303 304
238 236 234 234 233 231 229 226 224 223 223 222 220 218 216 216 217 218 219 221 222 225 228 229 232 235 238 240 243 244 245 246 248 249 251 253 254 256 257 259 261 262 264 265 267 268 270 272 273 274 275 276 278 280 282 283 285 286 286 287 288 289 289 290 291 292 292 293 294 294 295 295 296 296 297 297 298 299 300 300 301 302 303 303 304
238 235 233 232 232 232 230 228 225 224 223 222 220 219 217 216 216 217 219 221 223 225 226 228 231 233 236 238 240 241 243 244 246 248 249 251 253 255 257 258 259 261 262 263 265 266 268 270 271 272 273 275 277 279 280 282 283 284 284 285 286 287 288 289 289 290 291 292 292 293 294 294 295 296 296 297 298 298 299 300 301 301 302 303 303
238 236 233 231 231 231 231 230 227 226 225 223 221 220 218 217 217 218 220 222 224 226 227 229 231 233 235 237 239 240 242 244 246 248 249 251 252 253 255 257 258 259 260 261 263 265 266 267 268 270 272 273 275 277 278 279 280 281 282 283 284 285 286 287 288 289 290 291 292 292 293 294 295 295 296 297 297 298 298 299 300 301 302 302 303
239 238 235 232 231 231 231 231 229 228 227 226 224 222 220 219 219 219 221 223 225 227 229 231 232 233 234 236 238 240 242 244 246 248 249 251 252 253 254 256 257 258 259 261 262 264 265 266 267 268 270 271 272 274 275 276 278 279 281 282 283 284 286 287 288 289 290 291 291 292 293 293 294 295 295 296 296 297 298 299 300 300 301 302 302
241 239 237 234 232 231 231 232 231 230 228 228 227 225 223 222 222 222 223 224 226 228 230 231 233 233 234 235 237 239 241 243 245 247 248 250 251 252 253 254 256 257 258 260 262 263 265 266 267 268 269 271 272 273 274 276 278 280 281 282 284 285 286 287 287 288 289 290 291 291 292 292 293 294 294 295 295 296 297 298 299 300 300 301 302
244 242 239 236 234 233 232 232 232 232 230 230 230 229 227 225 225 225 225 226 227 229 230 232 233 234 235 236 237 239 240 241 243 245 247 248 249 250 252 253 254 256 258 260 261 263 264 266 267 269 270 272 273 274 275 276 278 280 281 282 283 284 285 286 287 287 288 289 290 290 291 292 292 293 294 294 295 296 297 298 299 300 300 301 302
246 244 242 239 237 235 233 232 232 233 232 232 231 231 231 230 228 227 227 228 229 230 231 232 233 235 236 237 238 239 240 242 243 244 245 247 248 249 250 252 254 255 257 259 261 262 264 265 267 268 269 271 272 273 274 275 277 279 280 281 282 283 284 285 286 287 288 288 289 290 290 291 292 293 293 294 295 296 297 298 299 299 300 301 302
246 245 243 241 239 237 235 234 233 233 233 233 233 232 232 232 232 231 230 230 230 231 232 233 234 235 237 238 239 240 241 242 244 245 246 247 248 249 251 252 254 255 257 258 260 261 263 264 266 267 268 270 271 272 273 275 276 278 279 280 281 282 283 285 286 286 287 288 289 289 290 291 291 292 293 294 295 296 297 298 298 299 300 302 303
247 245 244 242 240 238 237 235 234 234 234 234 234 234 234 234 234 234 234 234 233 233 233 234 235 236 238 239 240 241 242 243 244 245 246 247 249 250 251 253 254 255 256 258 259 260 262 263 265 266 267 269 270 271 273 274 276 277 278 280 281 282 283 284 285 286 286 287 288 289 290 290 291 292 293 294 295 296 297 297 299 300 301 302 303
249 247 245 244 241 239 238 237 236 235 234 234 234 235 235 235 235 235 236 236 236 236 236 236 237 237 238 240 241 242 242 243 244 245 246 247 248 250 251 252 254 255 256 257 259 260 261 262 264 265 266 268 269 271 272 274 275 276 278 279 280 281 282 283 284 285 286 287 287 288 289 290 291 292 293 294 295 296 297 298 299 301 302 302 303
251 248 247 245 244 242 240 238 237 236 236 235 235 235 235 236 236 236 237 237 238 238 239 239 239 239 239 240 241 242 243 244 245 246 246 247 249 250 251 252 253 255 256 257 258 259 261 262 263 264 266 267 269 270 272 273 274 276 277 278 279 280 281 282 283 284 285 286 287 288 289 290 291 292 293 294 295 296 297 299 300 301 302 302 303
254 251 249 247 246 244 243 241 239 238 237 236 236 236 236 236 237 237 238 238 239 239 240 240 241 241 241 241 242 243 244 244 245 246 247 248 249 250 251 252 253 254 256 257 258 259 260 262 263 264 265 267 268 270 271 272 273 274 276 277 278 279 280 281 282 283 284 285 286 287 288 290 291 292 293 294 295 296 298 299 300 301 302 302 303
255 253 252 250 248 246 245 244 242 240 239 238 238 237 237 238 238 238 238 239 239 240 241 241 242 243 243 243 243 244 245 245 246 247 248 248 249 250 251 252 253 254 255 256 258 259 260 261 262 264 265 266 267 269 270 271 272 273 275 276 277 278 279 281 282 283 284 285 286 287 288 289 291 292 293 294 296 297 298 299 300 300 301 301 302
258 255 253 252 251 249 247 246 244 243 242 241 240 239 239 239 239 239 239 240 240 241 241 242 243 244 244 245 245 245 246 246 247 247 248 249 250 251 252 253 254 255 256 257 258 259 260 261 262 263 265 266 267 268 269 271 272 273 274 275 277 278 279 280 281 282 284 285 286 287 288 290 291 292 293 295 296 297 298 298 299 300 300 300 301
263 260 256 254 252 251 250 248 247 246 244 243 242 241 240 240 240 240 241 241 241 242 242 243 243 244 245 246 246 247 247 248 248 249 249 250 251 251 252 253 254 256 257 258 259 260 261 262 263 264 265 266 267 268 269 270 272 273 274 275 276 278 279 280 281 282 284 285 286 287 289 290 291 292 294 295 296 297 297 298 299 299 299 300 299
262 262 261 258 255 253 251 250 249 248 247 246 245 244 243 242 242 241 241 242 242 243 244 244 245 245 246 247 247 248 249 250 250 251 251 252 252 253 254 254 255 256 257 258 259 260 261 262 263 264 265 266 268 269 270 271 272 273 274 275 277 278 279 280 282 283 284 285 287 288 289 291 292 293 294 295 296 296 297 298 298 299 299 299 298
260 260 260 260 259 257 254 252 251 250 249 248 247 247 246 245 244 244 243 243 243 244 244 245 246 246 247 248 248 249 250 250 251 252 252 253 254 254 255 256 257 257 258 259 260 261 262 263 264 265 266 267 268 269 270 271 273 274 275 276 277 278 280 281 282 283 285 286 287 289 290 291 292 293 294 295 295 296 297 297 298 298 297 297 297
263 261 259 259 259 259 258 256 253 252 251 250 249 248 248 248 247 247 246 245 245 245 245 245 246 247 247 248 249 250 250 251 252 252 253 254 255 255 256 257 258 258 259 260 261 262 263 264 265 266 267 268 269 270 271 272 273 275 276 277 278 279 280 282 283 284 285 287 288 289 290 291 292 293 294 294 295 296 296 296 296 296 296 295 295
266 264 262 260 259 259 259 258 257 255 253 252 251 250 249 249 249 248 248 248 247 247 246 246 246 247 248 248 249 250 251 251 252 253 254 254 255 256 257 257 258 259 260 261 262 263 264 265 266 266 267 268 269 270 272 273 274 275 276 278 279 280 281 282 283 285 286 287 288 289 290 291 292 293 293 294 294 295 295 295 295 295 294 294 293
269 267 264 263 262 260 260 259 259 258 257 255 253 252 251 250 250 249 249 249 249 249 249 248 248 248 248 249 250 250 251 252 253 253 254 255 256 256 257 258 259 260 261 261 262 263 264 265 266 267 268 269 270 271 272 273 274 276 277 278 279 280 281 282 284 285 286 287 288 289 290 291 291 292 293 293 293 293 293 293 293 293 292 292 292
274 271 269 266 265 263 262 260 260 259 259 257 256 254 253 252 252 251 250 250 250 250 250 250 250 250 250 250 251 251 252 252 253 254 255 255 256 257 258 259 260 260 261 262 263 264 265 266 266 267 268 269 270 271 272 274 275 276 277 278 279 280 281 283 284 285 286 287 288 289 290 290 291 291 291 291 291 291 292 292 292 291 291 291 292
Height
10603 10604 10605 10606 10607 10612 10617 10619 10620 10620 10621 10624 10627 10629 10632 10635 10636 10636 10638 10640 10642 10643 10644 10644 10645 10646 10648 10649 10651 10653 10654 10655 10656 10657 10658 10659 10661 10661 10662 10663 10663 10663 10663 10663 10663 10663 10662 10661 10659 10658 10657 10656 10655 10654 10653 10652 10651 10649 10647 10646 10646 10646 10646 10645 10642 10640 10639 10639 10639 10638 10637 10636 10635 10635 10634 10633 10633 10632 10632 10631 10631 10630 10630 10629 10628
10597 10599 10601 10603 10605 10610 10615 10616 10616 10617 10619 10622 10624 10625 10628 10630 10631 10631 10633 10636 10637 10638 10639 10638 10638 10640 10643 10646 10647 10648 10649 10650 10650 10651 10652 10654 10656 10657 10657 10658 10658 10658 10658 10658 10658 10658 10657 10656 10655 10654 10653 10651 10650 10649 10648 10648 10647 10646 10644 10643 10642 10642 10642 10642 10640 10638 10636 10636 10636 10635 10634 10633 10632 10632 10631 10630 10629 10629 10628 10628 10627 10626 10626 10624 10623
10592 10594 10597 10599 10602 10607 10611 10613 10614 10616 10618 10620 10622 10623 10625 10626 10627 10627 10629 10631 10632 10633 10633 10633 10634 10635 10638 10640 10642 10643 10643 10644 10646 10647 10648 10649 10651 10652 10652 10652 10653 10653 10653 10653 10652 10652 10652 10651 10651 10649 10648 10647 10646 10645 10644 10644 10644 10643 10641 10639 10639 10639 10639 10639 10638 10636 10634 10633 10633 10632 10631 10630 10630 10629 10628 10627 10626 10625 10625 10624 10623 10622 10621 10620 10619
10586 10590 10592 10595 10598 10602 10606 10609 10611 10614 10617 10619 10620 10621 10622 10622 10623 10624 10625 10626 10627 10627 10628 10628 10629 10631 10633 10635 10637 10638 10638 10639 10641 10642 10643 10645 10646 10647 10647 10647 10647 10648 10648 10647 10647 10646 10646 10646 10646 10645 10644 10643 10642 10642 10641 10640 10640 10639 10638 10636 10635 10635 10636 10636 10636 10634 10632 10631 10630 10630 10629 10628 10627 10625 10624 10623 10623 10622 10621 10620 10619 10618 10617 10616 10615
10581 10584 10587 10589 10592 10596 10599 10601 10606 10610 10613 10615 10617 10618 10618 10617 10618 10619 10620 10621 10622 10622 10622 10623 10625 10626 10628 10630 10632 10633 10633 10634 10635 10637 10638 10639 10640 10641 10642 10642 10642 10642 10642 10642 10642 10641 10641 10641 10641 10641 10640 10639 10639 10638 10638 10637 10636 10636 10635 10633 10631 10631 10633 10633 10633 10632 10631 10629 10628 10627 10626 10625 10623 10622 10621 10620 10619 10618 10617 10616 10615 10614 10613 10612 10611
10576 10578 10580 10582 10585 10589 10592 10595 10599 10602 10604 10606 10608 10611 10612 10610 10611 10613 10615 10617 10618 10617 10618 10619 10620 10620 10622 10624 10626 10627 10627 10628 10630 10631 10633 10634 10635 10635 10636 10636 10636 10636 10636 10636 10636 10636 10636 10637 10637 10637 10636 10636 10636 10635 10634 10633 10633 10632 10632 10631 10628 10627 10628 10629 10629 10629 10628 10627 10626 10624 10622 10621 10620 10619 10618 10617 10616 10614 10613 10613 10611 10610 10608 10607 10606
10570 10572 10573 10576 10580 10584 10587 10591 10594 10596 10598 10599 10601 10602 10603 10602 10604 10607 10609 10613 10614 10613 10615 10615 10614 10614 10617 10618 10619 10621 10622 10624 10625 10626 10627 10628 10629 10630 10630 10630 10630 10631 10631 10631 10631 10631 10632 10632 10632 10632 10632 10632 10632 10632 10631 10630 10629 10628 10628 10627 10626 10624 10624 10624 10625 10625 10625 10623 10622 10621 10619 10617 10616 10615 10614 10613 10612 10611 10610 10608 10606 10605 10604 10602 10601
10566 10567 10568 10571 10575 10579 10583 10586 10589 10591 10594 10595 10596 10596 10596 10595 10598 10601 10603 10606 10608 10609 10610 10610 10609 10609 10611 10613 10615 10616 10618 10619 10620 10621 10622 10622 10623 10624 10625 10625 10625 10625 10625 10626 10626 10627 10627 10627 10628 10628 10628 10628 10628 10628 10628 10626 10625 10624 10623 10623 10622 10622 10621 10620 10620 10621 10620 10619 10618 10617 10616 10614 10612 10611 10610 10608 10608 10607 10606 10603 10601 10600 10598 10595 10594
10561 10563 10564 10566 10570 10574 10577 10580 10583 10585 10587 10589 10590 10591 10591 10591 10593 10595 10597 10600 10602 10603 10603 10603 10604 10605 10606 10608 10609 10611 10613 10615 10615 10616 10616 10617 10618 10619 10619 10619 10619 10619 10620 10620 10621 10622 10623 10623 10623 10623 10624 10624 10624 10624 10624 10623 10621 10620 10619 10618 10618 10617 10616 10615 10615 10615 10615 10615 10614 10613 10612 10610 10609 10607 10605 10604 10603 10602 10600 10598 10596 10595 10593 10589 10587
10557 10558 10560 10562 10566 10569 10572 10575 10577 10580 10581 10583 10585 10587 10588 10589 10589 10591 10593 10594 10595 10596 10596 10597 10599 10601 10601 10602 10604 10606 10608 10609 10610 10610 10611 10611 10612 10613 10614 10614 10614 10614 10615 10615 10616 10617 10618 10618 10619 10619 10619 10619 10619 10619 10619 10618 10617 10616 10614 10613 10613 10612 10611 10610 10609 10609 10608 10609 10609 10608 10607 10605 10604 10603 10601 10599 10598 10596 10595 10592 10590 10589 10588 10584 10580
10552 10554 10556 10558 10561 10564 10567 10570 10572 10574 10577 10579 10582 10585 10585 10585 10585 10587 10588 10588 10589 10590 10590 10591 10594 10595 10597 10598 10599 10602 10603 10603 10604 10605 10605 10606 10607 10608 10608 10608 10609 10610 10610 10611 10612 10613 10613 10613 10613 10614 10614 10615 10615 10614 10613 10613 10612 10610 10609 10608 10607 10607 10606 10605 10604 10603 10602 10602 10602 10602 10602 10600 10599 10598 10595 10594 10592 10591 10589 10587 10584 10582 10581 10578 10574
10547 10550 10552 10554 10557 10560 10563 10566 10567 10569 10572 10576 10580 10582 10581 10581 10582 10583 10583 10584 10584 10585 10585 10586 10589 10590 10592 10594 10596 10597 10598 10598 10598 10599 10600 10601 10602 10602 10603 10603 10603 10604 10605 10606 10607 10607 10608 10608 10608 10609 10609 10609 10609 10609 10607 10605 10605 10604 10603 10602 10602 10602 10601 10601 10600 10598 10597 10596 10596 10596 10595 10594 10593 10591 10589 10587 10586 10584 10583 10581 10579 10577 10575 10572 10569
10542 10545 10548 10551 10553 10556 10559 10562 10563 10565 10567 10571 10575 10575 10573 10574 10576 10577 10578 10578 10579 10579 10580 10581 10583 10585 10587 10590 10592 10593 10593 10593 10593 10593 10594 10596 10596 10597 10597 10598 10598 10599 10600 10601 10601 10602 10603 10604 10604 10603 10604 10604 10604 10604 10602 10599 10598 10598 10596 10595 10595 10596 10596 10596 10595 10594 10592 10591 10590 10589 10588 10587 10586 10585 10583 10581 10579 10577 10576 10574 10573 10571 10568 10565 10562
10537 10540 10544 10547 10550 10552 10555 10557 10559 10560 10563 10567 10569 10567 10566 10568 10570 10570 10571 10573 10574 10574 10575 10575 10577 10579 10582 10585 10586 10587 10587 10587 10587 10587 10589 10590 10591 10591 10591 10592 10592 10593 10594 10595 10595 10596 10597 10598 10598 10598 10598 10598 10598 10598 10597 10595 10593 10592 10591 10589 10588 10590 10590 10589 10589 10588 10587 10586 10585 10583 10582 10580 10579 10578 10576 10574 10572 10570 10568 10566 10565 10563 10561 10558 10554
10531 10535 10539 10542 10545 10548 10550 10552 10554 10556 10558 10562 10562 10560 10560 10562 10564 10564 10564 10566 10568 10569 10569 10570 10572 10574 10577 10579 10580 10581 10581 10581 10581 10581 10583 10584 10584 10585 10585 10586 10586 10586 10587 10588 10589 10590 10591 10591 10592 10591 10591 10592 10592 10592 10592 10590 10589 10587 10585 10583 10583 10583 10583 10582 10582 10582 10581 10580 10579 10577 10576 10574 10573 10571 10569 10567 10565 10563 10561 10559 10557 10555 10552 10549 10546
10525 10529 10532 10536 10540 10543 10545 10548 10550 10552 10554 10556 10555 10554 10555 10557 10559 10559 10558 10560 10563 10563 10562 10563 10566 10568 10571 10572 10573 10574 10574 10574 10574 10575 10577 10577 10578 10578 10579 10579 10579 10580 10580 10581 10582 10583 10584 10584 10585 10585 10585 10585 10585 10585 10585 10585 10584 10583 10580 10578 10578 10577 10574 10573 10575 10575 10574 10573 10572 10570 10569 10568 10566 10565 10563 10560 10558 10556 10554 10552 10550 10548 10545 10541 10537
10519 10522 10526 10530 10534 10537 10540 10542 10545 10547 10550 10551 10551 10551 10552 10554 10555 10554 10553 10554 10557 10557 10556 10556 10558 10561 10564 10565 10566 10567 10567 10567 10568 10569 10570 10571 10571 10572 10572 10572 10573 10573 10573 10574 10574 10575 10576 10577 10578 10578 10578 10578 10578 10578 10578 10578 10577 10577 10575 10573 10573 10571 10568 10566 10566 10567 10567 10566 10565 10563 10562 10561 10559 10558 10556 10554 10551 10549 10547 10544 10542 10541 10539 10535 10531
10513 10516 10519 10522 10527 10531 10534 10536 10539 10542 10545 10546 10546 10547 10548 10549 10549 10549 10548 10549 10550 10550 10549 10549 10550 10553 10557 10558 10559 10560 10560 10560 10562 10562 10563 10564 10564 10565 10565 10566 10566 10566 10565 10566 10567 10567 10568 10569 10569 10570 10571 10571 10571 10571 10571 10570 10570 10569 10568 10567 10566 10564 10562 10560 10558 10558 10559 10559 10557 10556 10555 10554 10552 10551 10549 10546 10544 10542 10540 10537 10534 10532 10530 10528 10524
10506 10509 10512 10515 10519 10524 10527 10530 10532 10536 10539 10540 10540 10541 10543 10543 10544 10544 10543 10544 10545 10543 10542 10543 10544 10546 10549 10551 10552 10553 10553 10554 10556 10556 10556 10556 10556 10556 10557 10557 10558 10559 10559 10559 10559 10559 10560 10561 10562 10562 10563 10563 10563 10564 10564 10563 10562 10561 10560 10559 10558 10557 10556 10554 10552 10551 10551 10550 10549 10548 10546 10545 10544 10543 10541 10539 10536 10534 10532 10529 10526 10523 10520 10518 10515
10499 10503 10506 10508 10511 10516 10520 10523 10525 10529 10532 10534 10534 10534 10537 10538 10538 10538 10538 10539 10540 10538 10535 10536 10538 10540 10541 10543 10544 10545 10545 10546 10548 10549 10549 10549 10549 10548 10548 10549 10550 10551 10552 10552 10552 10552 10552 10552 10553 10553 10554 10554 10554 10555 10555 10556 10555 10553 10552 10552 10551 10550 10549 10547 10546 10544 10543 10542 10541 10539 10538 10536 10535 10533 10532 10530 10528 10526 10524 10520 10517 10514 10511 10508 10505
10491 10495 10499 10502 10504 10508 10512 10516 10519 10521 10524 10527 10527 10528 10530 10532 10533 10533 10533 10534 10535 10533 10531 10532 10533 10533 10534 10535 10536 10538 10538 10538 10539 10541 10542 10542 10541 10540 10540 10540 10541 10543 10544 10544 10545 10545 10545 10545 10545 10545 10544 10544 10545 10545 10546 10546 10546 10545 10545 10544 10544 10542 10541 10539 10538 10537 10536 10534 10533 10531 10529 10528 10526 10524 10522 10521 10519 10517 10514 10511 10508 10505 10502 10499 10496
10482 10485 10490 10494 10497 10500 10504 10508 10511 10514 10517 10519 10521 10522 10524 10527 10528 10528 10528 10529 10530 10529 10527 10528 10529 10528 10528 10528 10529 10530 10531 10532 10532 10533 10533 10533 10533 10532 10531 10532 10534 10535 10535 10536 10536 10537 10537 10538 10538 10537 10536 10536 10536 10536 10536 10537 10537 10536 10537 10536 10535 10534 10532 10531 10529 10528 10527 10526 10524 10523 10521 10519 10517 10515 10513 10510 10508 10506 10503 10500 10498 10495 10492 10489 10485
10472 10475 10479 10484 10488 10492 10495 10499 10503 10506 10509 10511 10513 10515 10517 10520 10522 10522 10522 10522 10523 10523 10522 10523 10524 10524 10523 10522 10522 10523 10524 10525 10526 10525 10525 10524 10523 10520 10521 10523 10526 10527 10527 10528 10528 10528 10528 10528 10528 10528 10528 10528 10527 10527 10527 10527 10527 10527 10527 10527 10526 10525 10524 10522 10521 10519 10518 10516 10514 10513 10511 10509 10507 10505 10502 10499 10496 10493 10491 10489 10487 10484 10481 10478 10474
10464 10466 10469 10474 10478 10482 10486 10489 10493 10497 10500 10503 10505 10507 10509 10512 10514 10516 10516 10516 10516 10518 10518 10518 10518 10518 10517 10517 10516 10516 10517 10518 10518 10517 10516 10516 10515 10511 10510 10511 10514 10517 10519 10521 10521 10520 10519 10519 10519 10519 10519 10519 10518 10517 10518 10517 10517 10517 10517 10517 10517 10517 10516 10514 10512 10510 10508 10506 10504 10502 10500 10498 10495 10492 10490 10487 10484 10482 10479 10476 10474 10472 10469 10466 10462
10456 10459 10461 10465 10469 10473 10476 10479 10483 10487 10490 10493 10495 10497 10500 10503 10505 10507 10509 10510 10512 10513 10513 10511 10511 10511 10510 10510 10510 10509 10509 10509 10510 10508 10508 10509 10508 10506 10504 10502 10502 10504 10508 10510 10511 10512 10511 10511 10511 10511 10511 10511 10510 10508 10508 10508 10508 10508 10508 10508 10507 10507 10506 10504 10503 10501 10499 10497 10494 10491 10488 10486 10483 10481 10478 10476 10474 10471 10468 10465 10462 10460 10457 10454 10450
10447 10450 10453 10457 10460 10464 10467 10470 10473 10476 10479 10482 10484 10486 10489 10492 10495 10497 10500 10502 10504 10506 10504 10502 10502 10503 10502 10501 10501 10501 10501 10501 10501 10500 10501 10501 10501 10500 10499 10495 10493 10494 10497 10498 10499 10500 10500 10501 10502 10502 10502 10502 10501 10500 10500 10499 10499 10499 10498 10497 10496 10495 10495 10494 10492 10490 10488 10486 10483 10480 10478 10475 10473 10470 10468 10466 10464 10461 10459 10456 10452 10449 10446 10443 10439
10439 10442 10445 10448 10451 10454 10458 10461 10463 10466 10469 10471 10473 10476 10478 10481 10484 10487 10490 10493 10496 10496 10495 10493 10492 10493 10492 10492 10492 10492 10492 10493 10493 10493 10493 10493 10493 10493 10492 10489 10486 10486 10487 10488 10488 10489 10489 10489 10490 10491 10492 10492 10491 10491 10490 10490 10489 10489 10488 10486 10485 10484 10482 10481 10479 10478 10476 10474 10472 10470 10468 10466 10463 10461 10458 10456 10453 10451 10449 10446 10443 10439 10436 10433 10429
10430 10433 10436 10440 10443 10446 10449 10451 10453 10456 10459 10461 10463 10466 10469 10471 10473 10476 10479 10482 10485 10486 10486 10484 10483 10482 10482 10483 10484 10484 10484 10485 10485 10485 10485 10484 10484 10484 10484 10482 10480 10478 10478 10478 10478 10479 10480 10480 10480 10480 10480 10480 10480 10479 10479 10478 10478 10477 10476 10475 10474 10473 10471 10470 10468 10467 10465 10464 10462 10460 10458 10456 10453 10450 10447 10445 10443 10441 10439 10436 10434 10430 10427 10423 10419
10421 10424 10427 10431 10435 10438 10440 10442 10444 10447 10449 10451 10454 10457 10460 10462 10463 10466 10468 10470 10472 10474 10474 10474 10473 10472 10472 10473 10475 10476 10476 10476 10476 10477 10477 10476 10475 10475 10474 10473 10472 10471 10470 10470 10470 10470 10471 10472 10472 10471 10470 10469 10468 10467 10466 10465 10465 10464 10464 10463 10463 10462 10461 10460 10458 10457 10455 10453 10451 10449 10447 10445 10442 10439 10437 10434 10432 10430 10428 10426 10424 10421 10417 10413 10409
10412 10414 10418 10422 10425 10428 10431 10433 10435 10437 10439 10442 10445 10447 10450 10452 10454 10456 10458 10459 10460 10462 10463 10463 10463 10463 10463 10463 10465 10466 10467 10467 10467 10468 10468 10467 10466 10466 10466 10465 10464 10463 10462 10462 10462 10462 10462 10462 10462 10462 10461 10460 10459 10457 10456 10455 10454 10454 10453 10453 10452 10451 10450 10448 10447 10445 10444 10442 10440 10438 10436 10434 10431 10429 10426 10424 10422 10419 10417 10414 10412 10409 10406 10402 10397
10402 10404 10408 10411 10415 10418 10421 10423 10425 10427 10430 10432 10435 10437 10440 10442 10444 10446 10447 10449 10450 10451 10452 10453 10453 10453 10453 10454 10455 10456 10458 10458 10458 10458 10458 10458 10457 10457 10457 10458 10457 10456 10454 10454 10454 10454 10454 10454 10453 10452 10451 10450 10449 10448 10448 10447 10446 10446 10445 10443 10442 10441 10440 10438 10437 10435 10434 10432 10430 10428 10426 10424 10421 10419 10416 10413 10411 10408 10405 10402 10399 10397 10394 10390 10386
10392 10395 10398 10401 10405 10408 10411 10414 10416 10418 10420 10423 10425 10427 10429 10431 10433 10435 10436 10438 10439 10440 10441 10442 10443 10444 10445 10445 10446 10447 10448 10449 10449 10449 10449 10450 10450 10449 10448 10448 10449 10448 10447 10446 10446 10445 10445 10445 10444 10443 10442 10441 10440 10440 10440 10439 10438 10437 10436 10435 10434 10432 10431 10430 10428 10427 10425 10423 10421 10419 10417 10414 10412 10409 10406 10403 10400 10396 10393 10390 10387 10385 10382 10379 10375
10384 10386 10388 10392 10395 10398 10401 10403 10406 10408 10410 10413 10415 10417 10419 10421 10423 10424 10426 10427 10428 10429 10430 10431 10433 10434 10435 10436 10437 10437 10438 10439 10439 10439 10439 10440 10441 10440 10439 10439 10439 10438 10438 10437 10436 10436 10435 10434 10434 10433 10433 10433 10432 10432 10431 10430 10429 10429 10428 10427 10426 10425 10423 10422 10420 10418 10416 10413 10411 10409 10406 10404 10401 10398 10395 10392 10389 10386 10383 10380 10377 10373 10370 10367 10363
10374 10376 10379 10382 10384 10387 10389 10392 10394 10397 10400 10402 10405 10407 10409 10411 10413 10414 10415 10416 10418 10419 10420 10421 10422 10423 10424 10425 10426 10427 10428 10429 10430 10430 10429 10430 10430 10431 10430 10430 10429 10428 10427 10427 10426 10425 10425 10425 10425 10424 10424 10424 10423 10422 10422 10421 10420 10419 10418 10417 10416 10414 10413 10411 10409 10407 10405 10402 10400 10398 10395 10393 10390 10388 10385 10382 10378 10375 10372 10369 10366 10362 10358 10355 10351
10365 10367 10369 10372 10374 10375 10377 10379 10382 10386 10389 10392 10394 10397 10399 10401 10403 10404 10405 10406 10407 10408 10410 10411 10411 10412 10413 10414 10415 10416 10418 10419 10419 10420 10420 10420 10420 10420 10420 10419 10419 10418 10417 10417 10416 10415 10415 10414 10413 10413 10413 10412 10412 10412 10411 10410 10409 10408 10406 10405 10404 10402 10401 10399 10398 10396 10394 10392 10390 10387 10385 10383 10380 10378 10375 10371 10368 10365 10362 10358 10355 10351 10347 10343 10339
10355 10356 10358 10360 10362 10363 10365 10368 10371 10374 10378 10381 10383 10386 10388 10390 10391 10392 10393 10395 10396 10398 10399 10400 10401 10402 10402 10403 10404 10405 10406 10407 10408 10409 10409 10410 10410 10409 10409 10408 10408 10407 10407 10407 10406 10405 10403 10402 10402 10401 10401 10401 10400 10400 10399 10398 10397 10396 10394 10393 10392 10391 10390 10388 10387 10385 10383 10381 10379 10377 10374 10372 10369 10366 10363 10360 10357 10353 10350 10347 10343 10339 10334 10330 10325
10343 10344 10345 10348 10350 10352 10354 10357 10360 10363 10366 10369 10371 10373 10375 10377 10379 10380 10382 10383 10385 10386 10388 10389 10390 10391 10391 10392 10393 10394 10395 10396 10398 10398 10399 10399 10398 10397 10397 10396 10396 10397 10397 10397 10395 10394 10392 10392 10392 10392 10391 10390 10389 10389 10388 10387 10385 10384 10383 10382 10381 10380 10378 10377 10375 10374 10372 10370 10368 10365 10363 10361 10358 10355 10352 10348 10345 10342 10338 10335 10331 10326 10322 10318 10314
10330 10331 10331 10334 10337 10340 10343 10346 10348 10350 10353 10355 10358 10360 10363 10365 10367 10368 10370 10371 10373 10374 10376 10377 10378 10379 10380 10380 10381 10383 10384 10385 10387 10388 10388 10387 10386 10385 10385 10385 10386 10386 10387 10386 10384 10383 10383 10382 10382 10381 10380 10380 10379 10378 10377 10375 10374 10372 10371 10370 10369 10368 10366 10365 10363 10362 10360 10358 10355 10353 10351 10349 10346 10343 10340 10336 10333 10330 10326 10322 10318 10314 10310 10306 10302
10316 10318 10318 10319 10323 10327 10330 10333 10335 10337 10339 10342 10344 10347 10350 10352 10354 10356 10357 10358 10360 10362 10364 10365 10366 10368 10368 10367 10368 10371 10373 10374 10376 10377 10376 10375 10374 10374 10374 10374 10375 10375 10375 10375 10374 10373 10373 10372 10371 10371 10370 10369 10368 10367 10366 10364 10362 10361 10360 10359 10357 10356 10354 10353 10352 10350 10348 10345 10343 10341 10339 10336 10333 10330 10327 10324 10320 10317 10313 10309 10305 10301 10297 10293 10289
10303 10305 10305 10306 10308 10312 10315 10318 10321 10323 10325 10327 10330 10333 10336 10339 10341 10342 10344 10345 10347 10349 10351 10352 10354 10356 10356 10355 10356 10359 10361 10363 10364 10365 10364 10363 10363 10363 10363 10363 10363 10364 10364 10364 10363 10363 10362 10361 10361 10360 10360 10359 10358 10356 10355 10353 10351 10349 10348 10347 10346 10344 10343 10341 10340 10338 10335 10333 10330 10328 10326 10324 10321 10318 10315 10311 10307 10304 10300 10296 10292 10288 10284 10280 10275
10290 10292 10293 10293 10294 10298 10301 10303 10306 10308 10311 10314 10316 10319 10322 10324 10327 10329 10330 10332 10333 10335 10337 10338 10340 10342 10343 10344 10344 10347 10350 10352 10352 10352 10351 10351 10352 10352 10351 10352 10352 10352 10352 10352 10351 10351 10351 10350 10350 10349 10349 10348 10347 10345 10343 10342 10340 10338 10337 10336 10335 10333 10331 10330 10328 10326 10324 10321 10318 10316 10314 10311 10309 10306 10302 10299 10295 10291 10287 10283 10279 10275 10271 10266 10261
10278 10279 10280 10281 10282 10284 10287 10289 10291 10294 10297 10300 10303 10305 10307 10310 10313 10315 10317 10318 10320 10321 10323 10324 10325 10327 10330 10331 10332 10334 10337 10339 10340 10339 10339 10339 10340 10340 10340 10340 10340 10340 10340 10340 10339 10339 10339 10338 10338 10338 10337 10336 10335 10333 10332 10330 10328 10327 10325 10324 10323 10321 10320 10318 10316 10314 10312 10309 10306 10304 10301 10299 10296 10293 10289 10286 10282 10278 10275 10271 10267 10263 10258 10253 10248
10267 10268 10268 10269 10270 10272 10274 10275 10277 10279 10283 10286 10289 10291 10293 10296 10298 10300 10303 10304 10306 10308 10309 10310 10311 10313 10315 10318 10320 10321 10323 10325 10326 10327 10327 10327 10328 10328 10328 10328 10328 10328 10328 10327 10327 10327 10327 10326 10326 10325 10325 10324 10323 10321 10320 10318 10316 10315 10313 10312 10311 10309 10308 10306 10304 10302 10299 10297 10294 10292 10289 10287 10284 10281 10277 10274 10270 10266 10263 10259 10256 10251 10246 10241 10236
10256 10257 10257 10257 10258 10259 10261 10262 10264 10266 10269 10272 10275 10277 10279 10282 10284 10286 10288 10290 10292 10294 10296 10297 10298 10299 10301 10303 10306 10307 10308 10310 10312 10314 10314 10315 10315 10315 10315 10315 10315 10315 10315 10315 10315 10315 10315 10314 10313 10313 10312 10311 10310 10309 10307 10306 10304 10303 10301 10299 10298 10297 10295 10294 10291 10289 10287 10285 10282 10280 10277 10274 10271 10269 10266 10263 10259 10255 10251 10248 10244 10239 10234 10229 10224
10245 10246 10246 10246 10246 10247 10248 10249 10251 10254 10256 10258 10260 10263 10265 10268 10270 10272 10274 10276 10278 10280 10282 10284 10285 10286 10287 10289 10291 10292 10294 10296 10298 10299 10301 10301 10302 10302 10303 10303 10303 10303 10302 10302 10302 10302 10302 10302 10301 10300 10299 10298 10297 10296 10295 10293 10291 10289 10288 10287 10285 10284 10282 10281 10279 10277 10275 10272 10270 10268 10265 10262 10259 10256 10254 10250 10247 10243 10239 10236 10231 10226 10221 10216 10211
10235 10235 10235 10235 10235 10235 10235 10237 10239 10241 10243 10245 10247 10249 10251 10253 10256 10258 10260 10263 10265 10266 10268 10269 10271 10273 10274 10275 10276 10278 10280 10282 10283 10285 10286 10287 10288 10289 10289 10289 10289 10289 10289 10289 10289 10289 10289 10288 10287 10286 10286 10285 10283 10282 10281 10280 10278 10276 10275 10274 10272 10271 10269 10267 10265 10263 10262 10260 10257 10255 10253 10250 10246 10244 10241 10238 10234 10230 10226 10222 10218 10213 10209 10204 10200
10226 10225 10225 10224 10224 10224 10224 10225 10227 10228 10230 10232 10234 10236 10238 10239 10242 10244 10247 10249 10252 10253 10255 10256 10258 10259 10260 10261 10262 10264 10265 10267 10268 10270 10271 10273 10274 10275 10275 10275 10275 10275 10275 10275 10275 10276 10276 10275 10274 10273 10272 10271 10270 10268 10267 10266 10265 10263 10262 10261 10260 10259 10257 10255 10253 10251 10249 10247 10245 10243 10240 10237 10234 10231 10228 10225 10221 10217 10213 10209 10205 10201 10197 10193 10189
10217 10216 10215 10214 10213 10213 10213 10214 10216 10217 10218 10220 10222 10223 10225 10226 10228 10231 10233 10235 10237 10239 10241 10243 10244 10246 10247 10248 10249 10250 10251 10253 10254 10255 10256 10258 10259 10260 10260 10261 10261 10261 10261 10261 10262 10262 10262 10261 10261 10260 10259 10258 10256 10255 10253 10252 10251 10250 10249 10248 10248 10246 10245 10243 10242 10240 10238 10236 10233 10231 10228 10224 10221 10218 10215 10212 10208 10205 10201 10198 10194 10190 10186 10183 10180
10208 10207 10206 10205 10204 10203 10203 10203 10205 10206 10207 10209 10210 10211 10212 10214 10216 10218 10219 10220 10222 10224 10227 10229 10230 10232 10233 10234 10235 10236 10237 10238 10240 10241 10242 10243 10245 10245 10246 10247 10247 10248 10248 10249 10249 10249 10248 10248 10248 10247 10247 10245 10244 10242 10241 10239 10238 10237 10237 10236 10235 10234 10233 10231 10230 10228 10226 10223 10221 10218 10216 10212 10209 10206 10203 10200 10196 10193 10190 10187 10184 10180 10176 10173 10170
10200 10199 10198 10196 10195 10194 10194 10194 10194 10195 10197 10198 10199 10199 10200 10202 10204 10205 10206 10206 10207 10210 10212 10215 10216 10218 10219 10221 10222 10223 10224 10225 10227 10227 10228 10229 10231 10232 10232 10233 10234 10235 10236 10236 10236 10235 10235 10235 10235 10234 10234 10233 10232 10230 10229 10228 10226 10225 10225 10224 10224 10223 10221 10220 10218 10216 10214 10211 10209 10206 10203 10200 10197 10194 10191 10188 10185 10182 10180 10177 10174 10171 10167 10164 10162
10191 10190 10189 10188 10186 10186 10185 10185 10185 10185 10186 10187 10187 10188 10189 10190 10192 10193 10193 10193 10194 10197 10199 10201 10203 10204 10206 10207 10208 10209 10211 10212 10213 10214 10215 10216 10218 10219 10220 10220 10221 10222 10222 10222 10222 10222 10222 10222 10222 10221 10220 10220 10219 10218 10217 10216 10214 10214 10213 10212 10212 10211 10210 10208 10206 10204 10202 10199 10197 10194 10191 10188 10186 10183 10180 10178 10175 10172 10170 10168 10165 10162 10159 10156 10153